COSMOS 1275 DEB, 13478

Orbit data source: Space-Track

COSMOS 1275 DEB, 13478 is space debris in LEO originally from a launch on Thu, 04 Jun 1981 UTC launched from the Plesetsk Missile And Space Complex (PKMTR). Debris objects in space refer to the collection of defunct objects orbiting the Earth. Examples of debris include non-operational satellites, rocket bodies, and fragments generated from explosions, collisions, or faulty payload assembly.

Loading next visibility...
Identifier
13478, 1981-053FY
Orbit
LEO
Country
Flag of CISCIS
Related business
Manufacturer
Unknown
Mission
Spacecraft
Bus & Motor
Unknown
Mass
Unknown
Launch date (UTC)
1981-06-04 (45 years ago)
Launch vehicle
Unknown
Launch site
Plesetsk Missile And Space Complex (PKMTR)
Object type
Payload
Rocket body
Debris
Shape & HBR
Unknown shape, 0.1 m
Radar Cross Section
Small (<0.1 m²)

Expand to show TLE details & history
Last TLE update: 13 hours ago

TLE from 13 hours ago
0 COSMOS 1275 DEB
1 13478U 81053FY  25350.30756284  .00000600  00000-0  52883-3 0  9995
2 13478  82.8664 298.7287 0093124 203.9004 288.4443 13.81822857183885
Epoch: 2025-12-16T07:22Z
TLE epoch observation values (Epoch: 2025-12-16T07:22:53.429Z)
Latitude
48.26568°
Longitude
-85.21029°
Altitude
943.934 km
Speed
7.395 km/s
True Right ascension
07h 22m 49s
True Declination
48° 05' 57"
Sunlit
Object was in full shadow at epoch
Visualization orbit readout
Latitude
Unknown
Longitude
Unknown
Altitude
Unknown
Speed
Unknown
Apparent Right ascension
Unknown
Apparent Declination
Unknown
Sunlit
N/A
Visualization observer readout
Local Sidereal Time
19:28:06
Azimuth
Unknown
Elevation
Unknown
Doppler factor
Unknown
Orbital elements
Apogee altitude
1,022.855 km
Perigee altitude
886.285 km
Semi-major axis
7,332.707 km
Eccentricity
0.00931
Inclination
82.8664°
RAAN
298.7287°
Arg. of periapsis
203.9004°
True anomaly
287.42831°
Mean anomaly
288.4443°
Eccentric anomaly
287.93667°
Mean motion
3.45658 °/min
Orbital period
104.15 mins
BSTAR
0.00052883
Loading maneuver chart data...
Computing Atmospheric mass density...
Loading historical data...
Loading historical data...
Loading historical data...
Loading historical data...
Loading historical data...
Loading historical data...
Loading historical data...

Documentation

Showing up to 5 results
|